Terminal Aerodrome Forecast
Issued by NWS Charleston, WV

Current Version | Previous Version | Text Only | Print | Product List | Glossary Off
Versions: 1 2 3 4 5 6 7 8 9 10 11 12 13 14 15 16 17 18 19 20 21 22 23 24

000
FTUS41 KRLX 300900 AAA
TAFPKB
TAF AMD
KPKB 300909Z 3009/3106 30007KT 3SM -SN BR BKN008 OVC015
     FM301300 30008G14KT P6SM OVC025
     FM310400 31004KT P6SM BKN120=

USA.gov is the U.S. government's official web portal to all federal, state and local government web resources and services.